[[{"header":{"parameterUnit":"m.s-1","parameterCategory":1,"la1":30.2991,"la2":30.254,"lo1":-89.0895,"lo2":-89.0444,"dy":0.0017,"dx":0.0017,"nx":28,"ny":28,"refTime":"2024-03-14T21:00:00:Z","depth":0,"parameterNumber":2,"parameterNumberName":"U-component_of_WINDS"},"data":[0,0,0,0,0,0,0,0,0,0,0,0,0,0,0,0,0,0,0,0,0,0,0,0,0,0,0,0,0,0,0,0,0,0,0,0,0,0,0,0,0,0,0,0,0,0,0,0,0,0,0,0,0,0,0,0,0,0,1.657,1.657,0,1.6552,1.6552,1.6551,1.649,1.6488,1.6487,1.6486,1.6469,1.647,1.647,0,0,0,0,0,0,0,0,0,0,0,0,0,1.6552,1.6553,1.657,1.6569,1.6569,1.6552,1.6552,1.6551,1.649,1.6488,1.6487,1.6485,1.6468,1.6469,1.647,0,0,0,0,0,0,0,0,0,0,0,0,0,1.655,1.6553,1.657,1.6537,1.6533,1.6552,1.6552,1.6551,1.649,1.6488,1.6486,1.6484,1.6468,1.6469,1.6471,1.652,0,0,1.6474,1.6475,0,0,0,0,0,0,0,0,1.655,1.655,1.6542,1.6539,1.6535,1.6521,1.6539,1.6541,1.6491,1.6507,1.6486,1.6483,1.6488,1.6487,1.6489,1.6519,1.6518,1.6475,1.6475,1.6476,1.6476,0,0,0,0,0,0,0,1.655,1.6551,1.6563,1.6542,1.6538,1.6523,1.652,1.6539,1.6509,1.6505,1.6501,1.6499,1.6486,1.6488,1.6488,1.6518,1.6475,1.6476,1.6476,1.6477,1.6588,1.659,0,0,0,0,0,0,1.6555,1.6551,1.6563,1.6562,1.6538,1.6525,1.6522,1.6528,1.6509,1.6504,1.6501,1.6497,1.6486,1.6486,1.6487,1.6543,1.6476,1.6477,1.6478,1.6586,1.6589,1.6591,0,0,0,0,0,0,1.6555,1.6556,1.6564,1.6555,1.6555,1.6527,1.6534,1.6528,1.653,1.6506,1.65,1.6508,1.6485,1.6485,1.6512,1.6542,1.6478,1.6479,1.6583,1.6587,1.659,1.6656,0,0,0,0,0,0,1.6554,1.6557,1.6575,1.6556,1.6556,1.6589,1.6536,1.653,1.6532,1.6526,1.6511,1.6507,1.6483,1.6511,1.6513,1.6542,1.648,1.658,1.6585,1.6589,1.6651,1.6661,1.667,0,0,0,0,0,1.6554,1.6595,1.6576,1.6578,1.6578,1.6591,1.6591,1.6563,1.6535,1.6553,1.6537,1.6507,1.6538,1.6514,1.6516,1.6546,1.6578,1.6584,1.6588,1.6647,1.6659,1.667,0,0,0,0,0,0,1.6618,1.6592,1.6571,1.6607,1.6602,1.6581,1.6603,1.6577,1.658,1.6574,1.6539,1.6536,1.6568,1.656,1.6533,1.6593,1.6553,1.6559,1.6597,1.6609,1.6618,1.6619,1.6481,0,0,0,0,0,1.6637,1.6649,1.6625,1.6659,1.6658,1.6631,1.6636,1.6614,1.6608,1.6605,1.6591,1.6587,1.6595,1.6601,1.6608,1.665,1.6646,1.6672,1.6681,1.6689,1.6694,1.6716,1.6727,1.6607,1.6607,1.6607,0,0,1.6675,1.6662,1.6672,1.6672,1.6665,1.6679,1.6629,1.6646,1.6656,1.6608,1.6632,1.6622,1.6614,1.6649,1.6663,1.6643,1.6726,1.6695,1.6702,1.6703,1.6722,1.6733,1.6743,1.661,1.661,1.6609,0,0,1.6751,1.6743,1.677,1.6764,1.6755,1.6736,1.6743,1.6726,1.6717,1.6741,1.6705,1.6716,1.6732,1.6728,1.6728,1.6802,1.6774,1.6805,1.6854,1.6876,1.6885,1.6893,1.692,1.693,1.6811,1.6811,1.6811,0,1.68,1.6819,1.6787,1.6806,1.6807,1.6764,1.6791,1.6787,1.6781,1.6783,1.676,1.6778,1.677,1.6802,1.6821,1.6822,1.6829,1.6807,1.6886,1.6894,1.6901,1.6926,1.6936,1.6815,1.6814,1.6814,1.6814,0,1.6879,1.6893,1.6916,1.691,1.6913,1.6937,1.6909,1.6917,1.6895,1.688,1.6904,1.6893,1.6896,1.6902,1.6882,1.6932,1.692,1.6892,1.6852,1.6917,1.694,1.6949,1.682,1.6819,1.6818,1.6817,0,0,1.6995,1.6971,1.698,1.6977,1.6963,1.6973,1.6995,1.6997,1.7004,1.7001,1.7018,1.7032,1.7006,1.7006,1.6985,1.7004,1.7063,1.6973,1.6973,1.699,1.7118,1.7139,1.7151,1.7045,1.7047,1.7048,1.7119,0,1.7067,1.7102,1.7074,1.7113,1.7126,1.7084,1.7103,1.7097,1.7083,1.7091,1.7076,1.7086,1.7051,1.7051,1.7068,1.7053,1.7089,1.7047,1.706,1.7061,1.7063,1.7162,1.7184,1.7252,1.7128,1.7129,1.713,0,1.7156,1.7156,1.7197,1.718,1.7184,1.7201,1.7201,1.721,1.7202,1.7191,1.7191,1.7164,1.7184,1.7145,1.7172,1.7144,1.7148,1.7141,1.7143,1.7143,1.71,1.7165,1.7273,1.7283,1.7144,1.7143,1.7142,0,1.7236,1.7247,1.7272,1.7271,1.7252,1.7265,1.7258,1.7248,1.7251,1.7251,1.7253,1.7256,1.7258,1.7261,1.7236,1.721,1.7266,1.7225,1.7258,1.7258,1.7271,1.7271,1.7381,1.7274,1.7274,1.7274,1.7274,0,1.7319,1.7346,1.7308,1.7324,1.7352,1.732,1.7349,1.7338,1.733,1.7343,1.7307,1.7321,1.7287,1.7297,1.7277,1.7303,1.7304,1.7295,1.729,1.7298,1.7299,1.73,1.7295,1.7277,1.7276,1.7276,1.7275,0,1.7414,1.739,1.7415,1.7394,1.739,1.7412,1.7395,1.7409,1.7392,1.7409,1.7412,1.7386,1.7396,1.7371,1.7377,1.7364,1.7401,1.7388,1.7403,1.7399,1.7433,1.743,1.7548,1.7561,1.7447,1.7448,1.7449,0,1.7468,1.7487,1.7469,1.7475,1.747,1.748,1.7483,1.7452,1.7457,1.7449,1.7464,1.7471,1.7474,1.7492,1.7474,1.7479,1.7466,1.7506,1.7466,1.7474,1.7466,1.7465,1.7466,1.7515,1.7516,1.7517,1.7518,0,1.7567,1.7554,1.756,1.7561,1.7565,1.7565,1.7562,1.7569,1.7537,1.7544,1.7553,1.7556,1.7562,1.7569,1.7569,1.7562,1.7535,1.7531,1.7539,1.7547,1.7555,1.7551,1.7426,1.7528,1.7527,1.7527,1.7526,1.7526,1.7643,1.7658,1.7647,1.7654,1.7649,1.7647,1.7659,1.7644,1.7651,1.7653,1.7635,1.7648,1.764,1.7637,1.7633,1.7643,1.7625,1.7636,1.7639,1.7642,1.7647,1.7554,1.7643,1.7643,1.7643,1.7642,1.7642,0,1.774,1.7731,1.7738,1.7735,1.774,1.7714,1.7709,1.7716,1.7728,1.7722,1.7726,1.7737,1.7743,1.7726,1.773,1.7742,1.7729,1.7744,1.7742,1.7741,1.7664,1.7657,1.7754,1.7754,1.7754,1.7754,1.7754,1.7754,1.7791,1.7814,1.78,1.7821,1.7812,1.7824,1.7824,1.7822,1.7817,1.783,1.7835,1.7824,1.7814,1.7817,1.7822,1.7817,1.782,1.7839,1.783,1.7758,1.7747,1.7736,1.7729,1.784,1.784,1.7906,1.7906,1.7907]},{"header":{"parameterUnit":"m.s-1","parameterCategory":1,"la1":30.2991,"la2":30.254,"lo1":-89.0895,"lo2":-89.0444,"dy":0.0017,"dx":0.0017,"nx":28,"ny":28,"refTime":"2024-03-14T21:00:00:Z","depth":0,"parameterNumber":3,"parameterNumberName":"V-component_of_WINDS"},"data":[0,0,0,0,0,0,0,0,0,0,0,0,0,0,0,0,0,0,0,0,0,0,0,0,0,0,0,0,0,0,0,0,0,0,0,0,0,0,0,0,0,0,0,0,0,0,0,0,0,0,0,0,0,0,0,0,0,0,1.8034,1.8035,0,1.812,1.8121,1.8122,1.8053,1.805,1.8047,1.8044,1.8132,1.8137,1.8142,0,0,0,0,0,0,0,0,0,0,0,0,0,1.7809,1.7814,1.8034,1.8035,1.8037,1.812,1.8121,1.8123,1.8054,1.805,1.8046,1.8043,1.8131,1.8137,1.8143,0,0,0,0,0,0,0,0,0,0,0,0,0,1.7902,1.7815,1.8034,1.8012,1.8011,1.812,1.8121,1.8123,1.8054,1.805,1.8045,1.8041,1.8129,1.8136,1.8144,1.8279,0,0,1.8167,1.817,0,0,0,0,0,0,0,0,1.7897,1.7911,1.8014,1.8014,1.8013,1.8071,1.8074,1.8175,1.8055,1.8038,1.8044,1.8039,1.8116,1.8124,1.815,1.8283,1.8287,1.8168,1.8172,1.8175,1.8178,0,0,0,0,0,0,0,1.7891,1.7907,1.8068,1.8016,1.8015,1.7998,1.8006,1.8093,1.81,1.8039,1.8034,1.8045,1.8114,1.8143,1.8151,1.8288,1.8167,1.8174,1.8179,1.8182,1.8535,1.8539,0,0,0,0,0,0,1.7887,1.7902,1.8066,1.8071,1.7943,1.8005,1.8015,1.8057,1.8099,1.8101,1.8049,1.8042,1.8132,1.8143,1.8154,1.8315,1.8175,1.8182,1.8187,1.853,1.8536,1.8541,0,0,0,0,0,0,1.7882,1.7902,1.8062,1.7985,1.8004,1.8014,1.8062,1.8061,1.8089,1.8107,1.8108,1.8077,1.8129,1.8143,1.8248,1.8317,1.8186,1.8193,1.8524,1.8532,1.8539,1.8637,0,0,0,0,0,0,1.7876,1.7901,1.7953,1.7987,1.8009,1.8155,1.8066,1.8066,1.8103,1.8094,1.8133,1.8135,1.8126,1.8237,1.8256,1.8325,1.8199,1.8518,1.8528,1.8536,1.8628,1.8647,1.8663,0,0,0,0,0,1.7868,1.7977,1.7956,1.7976,1.8074,1.8159,1.8172,1.8159,1.8109,1.816,1.8171,1.8134,1.8306,1.8248,1.8269,1.8341,1.8514,1.8525,1.8536,1.862,1.8643,1.8663,0,0,0,0,0,0,1.7951,1.7981,1.7958,1.8081,1.8118,1.8147,1.8213,1.8185,1.8237,1.8227,1.8209,1.8218,1.8328,1.8345,1.828,1.8474,1.8402,1.8417,1.8459,1.8481,1.8498,1.8492,1.8205,0,0,0,0,0,1.7983,1.8051,1.8073,1.818,1.82,1.8203,1.824,1.8227,1.8265,1.828,1.8299,1.8337,1.8399,1.8441,1.85,1.863,1.8637,1.8689,1.8707,1.8721,1.8735,1.8804,1.8828,1.8577,1.8577,1.8576,0,0,1.8051,1.8076,1.812,1.8197,1.8224,1.8294,1.8217,1.8294,1.8346,1.8292,1.8392,1.8407,1.8448,1.8566,1.8619,1.8583,1.8806,1.8735,1.8747,1.8752,1.8818,1.8842,1.8863,1.8584,1.8583,1.8582,0,0,1.8211,1.8237,1.8328,1.8357,1.8399,1.84,1.8422,1.8456,1.8464,1.8564,1.8525,1.8585,1.8694,1.8724,1.8754,1.8924,1.8892,1.8944,1.9036,1.9104,1.9124,1.9141,1.9202,1.9224,1.8957,1.8957,1.8958,0,1.829,1.8394,1.8378,1.8458,1.8493,1.8448,1.854,1.8568,1.8628,1.8653,1.8612,1.8746,1.8771,1.8895,1.8936,1.8962,1.8986,1.8939,1.9122,1.9139,1.9156,1.9213,1.9236,1.8963,1.8963,1.8962,1.8962,0,1.8489,1.8561,1.863,1.8688,1.8731,1.8817,1.8814,1.8858,1.8842,1.8847,1.8949,1.8977,1.904,1.9068,1.9053,1.919,1.9166,1.9125,1.9052,1.9186,1.924,1.9261,1.8972,1.897,1.8968,1.8967,0,0,1.8703,1.8751,1.8777,1.8802,1.8845,1.8901,1.8984,1.9046,1.9084,1.9127,1.9196,1.9288,1.9249,1.9283,1.927,1.933,1.9462,1.928,1.9281,1.9313,1.9615,1.9646,1.9672,1.9441,1.9445,1.9448,1.9611,0,1.8864,1.901,1.8998,1.9135,1.9202,1.9159,1.9231,1.9265,1.9273,1.933,1.9337,1.9403,1.9347,1.9367,1.9424,1.9434,1.9523,1.9422,1.9505,1.9508,1.9496,1.97,1.9734,1.9887,1.9632,1.9636,1.9638,0,1.9072,1.9122,1.9266,1.9298,1.9325,1.9391,1.9446,1.9501,1.9538,1.9539,1.9577,1.9554,1.9637,1.9563,1.9677,1.9609,1.9642,1.9652,1.9657,1.9665,1.9582,1.9713,1.9935,1.9958,1.9671,1.9669,1.9666,0,1.9214,1.9316,1.9416,1.9439,1.9479,1.9526,1.9545,1.9578,1.9615,1.9663,1.9687,1.9744,1.9776,1.982,1.9813,1.9759,1.993,1.9854,1.9932,1.9933,1.9971,1.9969,2.0201,1.9992,1.9991,1.9991,1.999,0,1.9395,1.9485,1.948,1.9541,1.964,1.9625,1.9723,1.9737,1.9766,1.9829,1.9795,1.9854,1.9841,1.99,1.9895,1.999,2.0005,2.0007,2.0005,2.0011,2.0011,2.0032,2.0022,1.9997,1.9996,1.9994,1.9993,0,1.9571,1.9571,1.9676,1.9705,1.9715,1.9787,1.9811,1.9869,1.9873,1.9952,1.997,1.9977,2.0044,2.0041,2.0118,2.0114,2.0232,2.0217,2.0219,2.0216,2.0295,2.0287,2.055,2.0584,2.0352,2.0354,2.0356,0,1.9687,1.9755,1.9791,1.9831,1.9853,1.9917,1.9955,1.9942,1.9983,2.0031,2.0082,2.0147,2.0198,2.0307,2.0319,2.0377,2.0363,2.0451,2.0372,2.0375,2.0365,2.0361,2.0367,2.0467,2.047,2.0472,2.0473,0,1.9892,1.9889,1.9945,2.0002,2.0048,2.0092,2.0132,2.0167,2.0158,2.0206,2.0275,2.0314,2.0392,2.0456,2.0512,2.053,2.0501,2.0498,2.0519,2.0526,2.0525,2.0527,2.0262,2.0492,2.049,2.0489,2.0488,2.0487,2.0041,2.01,2.0134,2.0198,2.0227,2.0265,2.0321,2.0332,2.0389,2.0451,2.044,2.0517,2.0552,2.0623,2.0647,2.0707,2.0676,2.0706,2.0714,2.0722,2.0731,2.0515,2.0717,2.0716,2.0716,2.0715,2.0715,0,2.0245,2.0265,2.0324,2.0381,2.0432,2.0399,2.0442,2.0486,2.0554,2.0589,2.064,2.0718,2.078,2.0796,2.0856,2.09,2.0888,2.0916,2.0913,2.0918,2.0756,2.0731,2.0925,2.0925,2.0925,2.0925,2.0925,2.0925,2.0357,2.0454,2.0455,2.0565,2.0585,2.066,2.0687,2.0722,2.075,2.0839,2.0891,2.0901,2.0928,2.0989,2.1044,2.1047,2.1071,2.1104,2.1102,2.095,2.0929,2.0909,2.0886,2.111,2.111,2.1259,2.1261,2.1262]}]]